Location: Oberkirch
(48.5323°N, 8.0787°E)
Time: 17:19:56
(UTC+00:00)

SL-24 R/B - RUBIN 2 - Pass Details

Date: 19 February 2026
Orbit: 603 x 984 km, 64.6° (Epoch: 8 March)

Event Time Altitude Azimuth Distance (km) Brightness Sun altitude
Exits shadow 04:15:59 12° 342° (NNW) 1,868 5.9 -22.5°
Maximum altitude 04:16:11 12° 345° (NNW) 1,864 5.9 -22.5°
Drops below altitude 10° 04:17:58 10° 9° (N) 1,985 6.3 -22.2°
Sets 04:21:37 0° 41° (NE) 2,867 7.7 -21.6°
